TimeCDT,TemperatureF,Dew PointF,Humidity,Sea Level PressureIn,VisibilityMPH,Wind Direction,Wind SpeedMPH,Gust SpeedMPH,PrecipitationIn,Events,Conditions,WindDirDegrees,DateUTC
12:54 AM,57.0,54.0,89,29.87,10.0,NW,4.6,-,0.00,,Overcast,310,2013-06-17 05:54:00
1:54 AM,57.0,54.0,89,29.87,10.0,NNW,4.6,-,0.00,,Overcast,330,2013-06-17 06:54:00
2:54 AM,57.0,54.0,89,29.86,10.0,Calm,Calm,-,0.00,,Overcast,0,2013-06-17 07:54:00
3:54 AM,57.0,53.1,87,29.87,10.0,North,5.8,-,0.00,,Mostly Cloudy,10,2013-06-17 08:54:00
4:54 AM,55.9,52.0,87,29.90,10.0,NE,3.5,-,0.00,,Overcast,40,2013-06-17 09:54:00
5:49 AM,55.4,51.8,88,29.93,10.0,North,9.2,-,0.00,Rain,Light Rain,350,2013-06-17 10:49:00
5:54 AM,55.0,52.0,89,29.93,10.0,North,9.2,-,0.00,,Overcast,10,2013-06-17 10:54:00
6:03 AM,55.4,51.8,88,29.93,10.0,Variable,6.9,-,0.00,Rain,Light Rain,0,2013-06-17 11:03:00
6:54 AM,54.0,52.0,93,29.91,10.0,Calm,Calm,-,0.02,,Mostly Cloudy,0,2013-06-17 11:54:00
7:18 AM,53.6,51.8,94,29.90,10.0,NNE,4.6,-,N/A,,Mostly Cloudy,20,2013-06-17 12:18:00
7:54 AM,57.0,52.0,83,29.92,10.0,North,3.5,-,N/A,,Overcast,10,2013-06-17 12:54:00
8:29 AM,57.2,53.6,88,29.92,10.0,North,5.8,-,N/A,,Overcast,10,2013-06-17 13:29:00
8:54 AM,59.0,53.1,81,29.93,10.0,East,5.8,-,N/A,,Overcast,90,2013-06-17 13:54:00
9:54 AM,59.0,53.1,81,29.95,10.0,Calm,Calm,-,N/A,,Overcast,0,2013-06-17 14:54:00
10:01 AM,60.8,53.6,77,29.95,10.0,Calm,Calm,-,N/A,,Overcast,0,2013-06-17 15:01:00
10:09 AM,60.8,51.8,72,29.95,10.0,ENE,3.5,-,N/A,,Overcast,60,2013-06-17 15:09:00
10:54 AM,61.0,52.0,72,29.96,10.0,East,5.8,-,N/A,,Overcast,100,2013-06-17 15:54:00
11:14 AM,60.8,51.8,72,29.96,10.0,East,3.5,-,N/A,,Overcast,100,2013-06-17 16:14:00
11:54 AM,61.0,51.1,70,29.97,10.0,ENE,4.6,-,N/A,,Overcast,70,2013-06-17 16:54:00
12:54 PM,60.1,51.1,72,29.98,10.0,ENE,8.1,-,N/A,,Overcast,60,2013-06-17 17:54:00
1:54 PM,57.0,50.0,77,29.99,10.0,NNE,10.4,-,0.00,,Overcast,30,2013-06-17 18:54:00
2:54 PM,59.0,50.0,72,29.98,10.0,Variable,5.8,-,N/A,,Overcast,0,2013-06-17 19:54:00
3:54 PM,62.1,51.1,67,29.98,10.0,NNE,6.9,-,N/A,,Clear,20,2013-06-17 20:54:00
4:54 PM,64.0,51.1,63,29.98,10.0,NE,6.9,-,N/A,,Mostly Cloudy,40,2013-06-17 21:54:00
5:46 PM,62.6,51.8,68,29.98,10.0,NNE,5.8,-,N/A,,Mostly Cloudy,20,2013-06-17 22:46:00
5:54 PM,63.0,51.1,65,29.99,10.0,NNE,5.8,-,N/A,,Mostly Cloudy,30,2013-06-17 22:54:00
6:54 PM,62.1,51.1,67,30.00,10.0,Variable,4.6,-,N/A,,Mostly Cloudy,0,2013-06-17 23:54:00
7:09 PM,62.6,51.8,68,29.98,10.0,NNE,8.1,-,N/A,,Overcast,30,2013-06-18 00:09:00
7:54 PM,60.1,50.0,69,29.99,10.0,NNE,4.6,-,N/A,,Partly Cloudy,30,2013-06-18 00:54:00
8:54 PM,55.9,46.0,69,30.02,10.0,NE,5.8,-,N/A,,Clear,40,2013-06-18 01:54:00
9:54 PM,52.0,43.0,71,30.06,10.0,Calm,Calm,-,N/A,,Clear,0,2013-06-18 02:54:00
10:54 PM,48.9,42.1,77,30.07,10.0,Calm,Calm,-,N/A,,Clear,0,2013-06-18 03:54:00
11:54 PM,46.0,39.0,76,30.09,10.0,Calm,Calm,-,N/A,,Clear,0,2013-06-18 04:54:00